Date,TemperatureHighF,TemperatureAvgF,TemperatureLowF,DewpointHighF,DewpointAvgF,DewpointLowF,HumidityHigh,HumidityAvg,HumidityLow,PressureMaxIn,PressureMinIn,WindSpeedMaxMPH,WindSpeedAvgMPH,GustSpeedMaxMPH,PrecipitationSumIn
2013-1-2,26.0,23.8,19.0,16.0,14.8,14.0,75,65,59,0.00,40.00,3,1,4,0.00
2013-1-3,34.0,29.9,27.0,23.0,19.4,16.0,75,62,51,0.00,40.00,6,3,10,0.00
2013-1-4,34.0,29.8,28.0,25.0,21.1,19.0,78,68,60,0.00,40.00,7,4,12,0.00
2013-1-5,38.0,30.8,20.0,28.0,22.9,18.0,93,71,54,0.00,40.00,6,2,12,0.00
2013-1-6,41.0,35.4,31.0,34.0,29.1,27.0,93,76,67,0.00,40.00,6,2,10,0.00
2013-1-7,36.0,30.7,26.0,30.0,26.6,23.0,91,81,63,0.00,40.00,6,2,10,0.00
2013-1-8,47.0,33.0,21.0,32.0,26.9,21.0,95,77,50,0.00,40.00,6,1,8,0.00
2013-1-9,50.0,40.6,34.0,41.0,32.8,27.0,90,74,59,0.00,40.00,6,2,8,0.00
2013-1-10,41.0,36.2,28.0,32.0,29.7,28.0,95,76,60,0.00,40.00,6,1,8,0.00
2013-1-11,59.0,49.6,40.0,52.0,42.2,28.0,95,77,60,0.00,40.00,8,2,14,0.00
2013-1-14,37.0,34.8,32.0,30.0,26.9,25.0,75,69,64,0.00,40.00,5,2,8,0.00
2013-1-15,33.0,31.6,28.0,25.0,22.8,21.0,73,68,64,0.00,40.00,7,2,10,0.00
2013-1-16,36.0,32.3,30.0,32.0,30.1,23.0,99,90,68,0.00,40.00,5,1,8,0.00
2013-1-17,38.0,33.7,31.0,32.0,28.3,23.0,89,78,64,0.00,40.00,6,1,8,0.00
2013-1-18,33.0,26.9,16.0,23.0,16.3,9.0,81,62,50,0.00,40.00,12,5,14,0.00
2013-1-19,54.0,43.0,32.0,27.0,22.7,18.0,66,45,25,0.00,40.00,11,5,15,0.00
2013-1-20,47.0,34.1,23.0,32.0,20.4,12.0,71,55,42,0.00,40.00,12,5,15,0.00
2013-1-21,25.0,20.7,10.0,21.0,13.8,1.0,93,72,50,0.00,40.00,10,3,15,0.00
2013-1-22,15.0,9.2,5.0,5.0,0.3,-2.0,77,63,49,0.00,40.00,7,3,15,0.00
2013-1-23,19.0,11.8,3.0,18.0,4.4,0.0,90,70,46,0.00,40.00,4,1,12,0.00
2013-1-24,25.0,17.6,12.0,18.0,9.4,1.0,93,70,38,0.00,40.00,6,1,10,0.00
2013-1-25,22.0,17.5,13.0,21.0,11.8,3.0,89,75,59,0.00,40.00,4,1,10,0.00
2013-1-26,30.0,25.2,20.0,27.0,20.5,16.0,94,80,59,0.00,40.00,4,1,8,0.00
2013-1-27,33.0,26.2,16.0,23.0,18.2,14.0,90,70,54,0.00,40.00,3,1,8,0.00
2013-1-28,53.0,42.4,32.0,52.0,40.3,25.0,98,94,68,0.00,40.00,8,2,12,0.00
2013-1-29,67.0,57.8,50.0,55.0,51.0,48.0,98,82,60,0.00,40.00,11,5,14,0.00
2013-1-30,67.0,58.7,39.0,59.0,51.0,36.0,94,79,62,0.00,40.00,17,8,24,0.00
2013-1-31,40.0,26.1,22.0,37.0,20.6,12.0,95,77,54,0.00,40.00,14,6,24,0.00
2013-2-1,23.0,14.8,11.0,18.0,8.0,3.0,84,70,58,0.00,40.00,9,4,17,0.00
2013-2-2,27.0,18.3,9.0,27.0,15.6,5.0,97,86,73,0.00,40.00,10,3,14,0.00
2013-2-3,27.0,24.3,21.0,27.0,23.7,19.0,97,95,93,0.00,40.00,2,0,14,0.00
2013-2-4,30.0,25.7,23.0,32.0,25.4,21.0,98,92,86,0.00,40.00,4,1,6,0.00
2013-2-5,33.0,29.2,27.0,30.0,27.1,21.0,98,90,64,0.00,40.00,6,1,8,0.00
2013-2-6,36.0,29.6,24.0,28.0,23.0,18.0,97,74,53,0.00,40.00,4,1,8,0.00
2013-2-7,50.0,34.4,22.0,37.0,25.2,18.0,84,68,44,0.00,40.00,5,2,8,0.00
2013-2-8,42.0,34.7,26.0,39.0,30.1,21.0,95,83,76,0.00,40.00,12,5,17,0.00
2013-2-9,36.0,28.1,24.0,21.0,18.9,18.0,81,66,46,0.00,40.00,8,2,17,0.00
2013-2-10,51.0,37.9,24.0,34.0,21.8,16.0,73,53,29,0.00,40.00,12,2,17,0.00
2013-2-11,56.0,46.9,37.0,46.0,35.5,23.0,93,67,37,0.00,40.00,15,6,24,0.00
2013-2-12,45.0,37.1,31.0,28.0,25.6,23.0,75,61,44,0.00,40.00,9,3,24,0.00
2013-2-13,38.0,31.0,26.0,32.0,27.8,25.0,95,85,69,0.00,40.00,4,1,10,0.00
2013-2-14,40.0,32.8,24.0,37.0,30.9,23.0,97,92,78,0.00,40.00,11,3,14,0.00
2013-2-15,36.0,31.8,26.0,32.0,28.5,25.0,95,85,68,0.00,40.00,9,1,14,4.53
2013-2-16,30.0,24.3,17.0,25.0,17.7,10.0,93,74,47,0.00,40.00,6,1,8,0.00
2013-2-17,29.0,17.9,12.0,18.0,10.4,7.0,88,70,51,0.00,40.00,9,3,17,0.00
2013-2-18,47.0,29.3,11.0,30.0,17.1,7.0,85,60,37,0.00,40.00,12,3,17,0.00
2013-2-19,48.0,34.2,22.0,39.0,27.2,16.0,94,75,44,0.00,40.00,12,7,17,7.36
2013-2-20,22.0,19.4,17.0,18.0,12.6,9.0,85,71,60,0.00,40.00,10,5,17,0.00
2013-2-21,26.0,22.1,19.0,18.0,15.7,12.0,85,72,62,0.00,40.00,6,2,14,0.00
2013-2-22,45.0,33.3,22.0,39.0,28.1,16.0,93,81,68,0.00,40.00,7,2,12,0.00
2013-2-23,43.0,37.2,29.0,36.0,30.2,16.0,91,75,50,0.00,40.00,4,1,12,0.00
2013-2-24,32.0,29.1,26.0,27.0,22.2,19.0,91,73,58,0.00,40.00,7,2,12,0.00
2013-2-25,45.0,33.6,22.0,27.0,22.0,19.0,90,63,37,0.00,40.00,6,1,12,0.00
2013-2-26,38.0,34.5,32.0,36.0,26.3,19.0,95,72,53,0.00,40.00,9,4,12,5.67
2013-2-27,42.0,37.1,33.0,37.0,33.2,30.0,91,87,77,0.00,40.00,6,2,8,3.42
2013-2-28,35.0,33.1,31.0,32.0,30.8,28.0,94,89,81,0.00,40.00,6,2,10,11.33
2013-3-1,33.0,29.9,27.0,32.0,25.6,21.0,90,80,66,0.00,40.00,7,3,10,3.97
2013-3-2,30.0,26.9,25.0,27.0,22.4,18.0,91,81,64,0.00,40.00,7,2,10,10.78
2013-3-3,28.0,24.4,22.0,27.0,19.4,14.0,93,78,60,0.00,40.00,6,2,10,5.66
2013-3-4,39.0,27.1,14.0,21.0,16.6,12.0,91,64,37,0.00,40.00,5,1,10,0.00
2013-3-5,46.0,35.4,27.0,32.0,18.3,12.0,90,50,28,0.00,40.00,11,3,17,0.00
2013-3-6,42.0,35.3,32.0,34.0,31.5,28.0,99,86,60,0.00,40.00,7,2,17,7.36
2013-3-7,41.0,34.6,29.0,32.0,29.2,27.0,94,79,55,0.00,40.00,6,2,10,2.83
2013-3-8,42.0,34.1,26.0,32.0,27.0,23.0,91,73,50,0.00,40.00,7,2,10,0.00
2013-3-9,57.0,39.6,24.0,28.0,26.3,23.0,93,61,29,0.00,40.00,4,1,10,1.14
2013-3-10,69.0,56.0,46.0,34.0,29.8,27.0,62,37,22,0.00,40.00,6,2,14,0.00
2013-3-11,62.0,54.8,45.0,48.0,37.0,30.0,94,55,31,0.00,40.00,11,4,14,6.80
2013-3-12,46.0,37.4,33.0,41.0,30.9,28.0,90,77,66,0.00,40.00,6,2,14,0.00
2013-3-13,34.0,30.2,27.0,32.0,24.6,18.0,95,78,55,0.00,40.00,9,4,14,8.50
2013-3-14,41.0,30.7,21.0,23.0,19.0,16.0,81,61,38,0.00,40.00,9,3,14,0.00
2013-3-15,51.0,38.5,26.0,34.0,27.0,19.0,76,63,47,0.00,40.00,7,2,12,2.83
2013-3-16,50.0,41.3,32.0,43.0,37.5,30.0,97,89,77,0.00,40.00,8,2,12,0.00
2013-3-17,36.0,31.8,28.0,32.0,25.5,23.0,86,74,59,0.00,40.00,5,2,12,0.00
2013-3-18,49.0,38.1,30.0,46.0,35.2,23.0,99,90,68,0.00,40.00,8,4,14,10.19
2013-3-19,48.0,35.3,30.0,45.0,25.5,18.0,93,67,46,0.00,40.00,12,5,21,0.00
2013-3-20,38.0,30.9,24.0,21.0,16.5,10.0,71,53,32,0.00,40.00,11,4,21,0.00
2013-3-21,28.0,23.0,15.0,21.0,14.5,9.0,91,68,47,0.00,40.00,7,4,15,1.14
2013-3-22,41.0,29.9,22.0,25.0,19.1,16.0,82,63,38,0.00,40.00,7,3,12,0.00
2013-3-23,47.0,34.4,21.0,25.0,19.9,16.0,89,57,28,0.00,40.00,5,1,10,0.00
2013-3-24,41.0,33.7,28.0,30.0,22.2,19.0,82,62,44,0.00,40.00,8,4,12,1.14
2013-3-25,36.0,33.5,32.0,34.0,32.0,30.0,100,95,82,0.00,40.00,5,2,12,18.14
2013-3-26,41.0,34.9,31.0,32.0,29.5,23.0,94,78,54,0.00,40.00,6,3,10,2.28
2013-3-27,43.0,36.9,29.0,32.0,27.4,18.0,89,68,38,0.00,40.00,9,3,14,0.00
2013-3-28,45.0,38.3,32.0,28.0,26.0,23.0,75,59,44,0.00,40.00,7,2,14,0.00
2013-3-29,53.0,42.2,29.0,30.0,25.0,16.0,80,51,28,0.00,40.00,7,2,10,0.00
2013-3-30,57.0,42.5,27.0,28.0,21.4,16.0,81,46,22,0.00,40.00,5,1,8,0.00
2013-3-31,50.0,45.9,41.0,45.0,33.3,-99.9,94,68,33,0.00,40.00,6,1,10,2.83
2013-4-1,48.0,39.8,32.0,39.0,24.3,9.0,89,55,25,0.00,40.00,26,4,57,0.00
2013-4-2,42.0,32.3,23.0,18.0,13.0,10.0,63,44,28,0.00,40.00,8,3,57,0.00
2013-4-3,44.0,32.6,22.0,21.0,13.3,7.0,73,45,23,0.00,40.00,9,2,15,0.00
2013-4-4,53.0,34.7,22.0,14.0,9.7,0.0,66,40,12,0.00,40.00,5,2,15,0.00
2013-4-8,74.0,69.6,65.0,48.0,43.5,39.0,54,41,32,0.00,40.00,9,3,14,0.00
2013-4-9,81.0,69.2,53.0,54.0,49.3,46.0,86,53,33,0.00,40.00,8,3,14,0.00
2013-4-10,82.0,69.9,56.0,61.0,54.5,48.0,98,62,41,0.00,40.00,9,3,14,0.00
2013-4-11,69.0,61.3,55.0,59.0,55.2,52.0,98,84,66,0.00,40.00,4,1,14,2.83
2013-4-12,61.0,51.3,43.0,57.0,44.2,32.0,97,80,59,0.00,40.00,8,4,12,8.50
2013-4-13,50.0,43.6,39.0,34.0,32.0,30.0,76,64,50,0.00,40.00,10,3,14,0.00
2013-4-14,64.0,47.6,31.0,36.0,31.6,28.0,93,58,29,0.00,40.00,5,2,14,0.00
2013-4-15,65.0,60.4,53.0,48.0,42.6,34.0,63,54,45,0.00,40.00,10,3,15,0.00
2013-4-16,78.0,63.3,55.0,59.0,51.7,46.0,97,70,46,0.00,40.00,11,4,15,0.00
2013-4-17,64.0,56.7,50.0,55.0,50.9,46.0,97,84,68,0.00,40.00,5,2,14,0.00
2013-4-18,84.0,70.3,56.0,57.0,52.9,48.0,93,61,29,0.00,40.00,17,6,24,0.00
2013-4-19,73.0,56.4,41.0,57.0,42.8,28.0,93,63,44,0.00,40.00,19,7,26,4.53
2013-4-20,46.0,39.3,34.0,34.0,26.8,21.0,94,61,40,0.00,40.00,9,4,26,0.00
2013-4-21,53.0,40.6,29.0,27.0,21.6,16.0,80,49,25,0.00,40.00,6,2,14,0.00
2013-4-22,67.0,52.6,38.0,34.0,27.2,18.0,60,38,24,0.00,40.00,7,2,10,0.00
2013-4-23,73.0,58.1,42.0,37.0,31.6,23.0,62,38,24,0.00,40.00,8,3,12,0.00
2013-4-24,64.0,53.6,35.0,54.0,42.3,32.0,94,71,38,0.00,40.00,11,4,15,4.56
2013-4-25,56.0,42.9,32.0,41.0,32.6,25.0,97,72,33,0.00,40.00,7,2,15,4.53
2013-4-26,61.0,47.2,31.0,39.0,30.6,25.0,98,59,25,0.00,40.00,4,1,14,0.00
2013-4-27,72.0,56.3,39.0,32.0,28.2,21.0,67,37,15,0.00,40.00,6,2,12,0.00
2013-4-28,61.0,54.8,50.0,55.0,46.6,-99.9,97,81,41,0.00,40.00,5,1,12,5.66
2013-4-29,63.0,57.2,53.0,57.0,52.8,50.0,98,88,72,0.00,40.00,6,2,8,2.83
2013-4-30,76.0,62.8,49.0,55.0,49.8,46.0,98,69,38,0.00,40.00,6,1,8,0.00
2013-5-1,79.0,66.3,53.0,54.0,47.8,37.0,82,56,33,0.00,40.00,9,2,12,0.00
2013-5-2,77.0,66.1,53.0,46.0,40.0,34.0,56,40,31,0.00,40.00,6,2,12,0.00
2013-5-3,79.0,66.3,54.0,41.0,33.8,25.0,58,33,16,0.00,40.00,7,2,14,0.00
2013-5-4,71.0,61.4,50.0,41.0,34.0,27.0,58,37,22,0.00,40.00,8,3,14,0.00
2013-5-5,74.0,62.1,49.0,41.0,30.5,19.0,67,35,14,0.00,40.00,9,3,14,0.00
2013-5-6,70.0,60.6,53.0,55.0,43.7,25.0,86,57,25,0.00,40.00,7,2,14,0.00
2013-5-7,67.0,60.8,56.0,57.0,51.6,48.0,88,74,60,0.00,40.00,9,2,12,0.00
2013-5-8,60.0,58.0,57.0,54.0,51.6,50.0,86,81,73,0.00,40.00,2,1,12,4.53
2013-5-15,87.0,82.3,76.0,60.0,55.4,52.0,51,40,32,0.00,40.00,9,4,21,0.00
2013-5-16,80.0,64.6,59.0,63.0,36.5,-99.9,95,67,20,0.00,40.00,6,2,11,2.79
2013-5-17,82.0,68.2,58.0,61.0,52.3,-99.9,95,69,30,0.00,40.00,7,1,13,0.00
2013-5-18,80.0,67.8,56.0,63.0,55.6,44.0,85,65,50,0.00,40.00,6,1,9,0.00
2013-5-19,80.0,69.9,60.0,65.0,61.3,58.0,93,75,53,0.00,40.00,9,2,16,0.00
2013-5-20,84.0,72.4,63.0,69.0,65.2,61.0,93,79,59,0.00,40.00,10,3,16,0.00
2013-5-21,86.0,73.9,66.0,68.0,65.1,61.0,94,76,44,0.00,40.00,10,3,19,0.00
2013-5-22,84.0,72.6,62.0,65.0,61.0,56.0,93,69,43,0.00,40.00,14,3,22,0.55
2013-5-23,76.0,64.7,45.0,64.0,56.9,40.0,94,77,44,0.00,40.00,11,4,21,0.00
2013-5-24,52.0,45.1,37.0,40.0,35.2,32.0,89,69,47,0.00,40.00,12,6,22,0.00
2013-5-25,63.0,47.7,32.0,38.0,33.2,29.0,95,62,29,0.00,40.00,11,2,19,0.00
2013-5-26,68.0,52.4,35.0,40.0,34.0,28.0,93,54,25,0.00,40.00,7,1,12,0.00
2013-5-27,69.0,55.8,46.0,50.0,42.5,33.0,81,61,43,0.00,40.00,7,1,14,0.55
2013-5-28,83.0,69.7,57.0,65.0,58.1,48.0,92,68,47,0.00,40.00,9,3,17,0.00
2013-5-29,86.0,75.3,65.0,63.0,59.4,53.0,78,59,32,0.00,40.00,9,2,17,0.00
2013-5-30,87.0,75.6,64.0,65.0,61.7,60.0,87,64,40,0.00,40.00,9,2,17,0.00
2013-5-31,88.0,75.0,64.0,64.0,62.0,59.0,93,67,38,0.00,40.00,14,3,30,1.69
2013-6-1,83.0,73.8,64.0,68.0,64.8,63.0,94,75,53,0.00,40.00,11,4,25,0.00
2013-6-2,78.0,72.2,64.0,66.0,59.2,-99.9,84,67,46,0.00,40.00,6,3,17,0.00
2013-6-3,67.0,62.0,53.0,58.0,51.6,40.0,82,69,51,0.00,40.00,6,2,12,0.00
2013-6-4,74.0,59.4,40.0,50.0,42.7,37.0,93,57,31,0.00,40.00,6,1,13,0.00
2013-6-5,84.0,67.7,51.0,62.0,50.5,44.0,79,56,35,0.00,40.00,4,1,10,0.00
2013-6-6,71.0,66.5,59.0,66.0,62.9,57.0,94,88,63,0.00,40.00,7,3,17,3.85
2013-6-7,64.0,59.5,56.0,57.0,55.4,54.0,95,86,76,0.00,40.00,6,3,12,0.00
2013-6-8,75.0,63.4,54.0,57.0,53.5,50.0,93,72,44,0.00,40.00,5,1,10,0.00
2013-6-9,83.0,70.7,58.0,67.0,59.7,55.0,89,69,47,0.00,40.00,6,1,13,0.55
2013-6-10,75.0,68.3,63.0,67.0,64.1,62.0,94,86,65,0.00,40.00,9,2,17,2.79
2013-6-11,80.0,69.7,63.0,66.0,62.7,60.0,94,80,53,0.00,40.00,7,2,16,0.00
2013-6-12,85.0,73.6,63.0,73.0,65.7,61.0,95,77,58,0.00,40.00,8,1,17,1.69
2013-6-13,73.0,67.0,63.0,67.0,59.9,50.0,96,79,50,0.00,40.00,11,4,27,4.44
2013-6-14,74.0,64.0,52.0,58.0,54.5,50.0,94,72,50,0.00,40.00,9,2,13,0.00
2013-6-15,79.0,64.7,49.0,62.0,53.2,48.0,94,70,33,0.00,40.00,4,1,11,0.00
2013-6-16,76.0,69.2,64.0,65.0,62.3,58.0,91,78,64,0.00,40.00,7,2,14,2.24
2013-6-17,83.0,71.6,65.0,68.0,63.8,57.0,91,78,41,0.00,40.00,6,2,12,0.55
2013-6-18,77.0,68.9,64.0,71.0,63.2,51.0,94,82,63,0.00,40.00,6,1,13,2.83
2013-6-19,78.0,65.3,55.0,54.0,48.3,42.0,78,56,30,0.00,40.00,6,2,13,0.00
2013-6-20,81.0,64.4,51.0,56.0,50.2,47.0,92,64,31,0.00,40.00,4,1,9,0.00
2013-6-22,81.0,75.7,72.0,67.0,67.0,67.0,83,74,62,0.00,40.00,4,1,9,0.00
2013-6-23,84.0,77.3,71.0,67.0,65.3,64.0,86,68,52,0.00,40.00,2,1,7,0.00
2013-6-24,87.0,81.3,66.0,67.0,65.0,63.0,91,58,43,0.00,40.00,6,2,12,0.00
2013-6-25,88.0,71.9,66.0,69.0,66.1,64.0,95,83,52,0.00,40.00,4,2,12,1.65
2013-6-26,82.0,73.6,66.0,71.0,67.4,64.0,97,81,64,0.00,40.00,13,2,25,1.69
2013-6-27,78.0,70.3,67.0,70.0,67.5,65.0,95,90,73,0.00,40.00,5,1,9,2.20
2013-6-28,82.0,72.3,64.0,70.0,65.1,57.0,95,79,52,0.00,40.00,6,2,13,0.00
2013-6-29,68.0,62.4,58.0,62.0,59.4,57.0,95,90,80,0.00,40.00,4,1,8,0.00
2013-7-1,80.0,72.9,66.0,69.0,64.9,63.0,93,76,56,0.00,40.00,4,2,12,0.55
2013-7-2,82.0,72.1,63.0,69.0,65.4,62.0,95,80,60,0.00,40.00,6,2,12,0.00
2013-7-3,85.0,74.9,68.0,73.0,67.5,66.0,94,79,55,0.00,40.00,7,2,14,2.20
2013-7-4,72.0,69.6,68.0,69.0,67.6,67.0,95,94,90,0.00,40.00,6,1,12,0.55
2013-7-5,78.0,72.7,70.0,73.0,68.7,67.0,95,87,73,0.00,40.00,6,2,14,0.00
2013-7-6,75.0,70.4,68.0,68.0,67.5,66.0,95,90,77,0.00,40.00,5,1,11,0.00
2013-7-7,73.0,71.9,71.0,69.0,68.4,68.0,89,88,87,0.00,40.00,4,2,6,0.00
2013-7-8,84.0,72.3,67.0,71.0,61.4,-99.9,95,79,58,0.00,40.00,6,2,15,4.49
2013-7-9,86.0,73.1,68.0,75.0,69.3,67.0,96,88,66,0.00,40.00,7,2,14,1.10
2013-7-10,88.0,75.3,65.0,77.0,65.8,-99.9,95,79,62,0.00,40.00,9,3,17,1.65
2013-7-11,77.0,69.4,62.0,65.0,60.9,54.0,94,75,48,0.00,40.00,7,2,15,0.00
2013-7-12,76.0,67.7,60.0,64.0,59.2,55.0,89,75,56,0.00,40.00,6,2,13,0.00
2013-7-13,75.0,65.1,62.0,65.0,61.3,60.0,94,87,68,0.00,40.00,3,1,7,0.00
2013-7-14,83.0,79.0,70.0,68.0,66.0,65.0,84,65,54,0.00,40.00,6,4,17,0.00
2013-7-15,91.0,83.6,70.0,71.0,68.4,66.0,92,61,43,0.00,40.00,4,2,11,0.00
2013-7-16,91.0,79.4,70.0,76.0,70.7,68.0,94,76,51,0.00,40.00,4,1,9,0.00
2013-7-17,92.0,82.3,70.0,74.0,71.1,68.0,94,71,47,0.00,40.00,4,1,10,0.00
2013-7-18,93.0,81.3,72.0,76.0,72.3,70.0,94,76,48,0.00,40.00,4,1,9,0.00
2013-7-19,90.0,78.5,71.0,74.0,70.9,67.0,94,79,53,0.00,40.00,6,2,11,0.00
2013-7-20,77.0,68.7,70.0,69.0,61.4,-99.9,94,85,74,0.00,40.00,5,2,10,2.83
2013-7-22,73.0,71.4,68.0,72.0,69.1,67.0,96,92,87,0.00,40.00,7,2,19,3.34
2013-7-23,82.0,69.3,64.0,71.0,65.3,62.0,96,88,65,0.00,40.00,5,2,12,2.24
2013-7-24,73.0,66.7,59.0,64.0,56.5,49.0,95,72,43,0.00,40.00,6,2,11,0.00
2013-7-25,76.0,65.9,53.0,57.0,52.6,50.0,92,65,38,0.00,40.00,6,2,12,0.00
2013-7-26,80.0,67.8,53.0,61.0,54.7,51.0,95,66,41,0.00,40.00,6,2,12,0.00
2013-7-27,69.0,63.6,62.0,64.0,61.1,59.0,93,91,82,0.00,40.00,4,1,7,0.00
2013-7-28,56.0,56.0,56.0,55.0,55.0,55.0,95,95,95,0.00,40.00,0,0,2,0.00
2013-7-29,74.0,68.5,58.0,58.0,54.4,51.0,93,62,49,0.00,40.00,6,2,12,0.00
2013-7-30,80.0,68.3,56.0,62.0,57.4,54.0,95,71,44,0.00,40.00,5,1,9,0.00
2013-7-31,75.0,67.0,60.0,67.0,62.9,58.0,95,87,74,0.00,40.00,4,1,9,4.48
2013-8-1,80.0,69.7,62.0,65.0,62.1,57.0,95,79,46,0.00,40.00,6,2,12,0.00
2013-8-2,77.0,67.4,56.0,62.0,57.9,53.0,94,73,46,0.00,40.00,6,2,12,0.00
2013-8-3,71.0,64.9,63.0,63.0,62.4,61.0,96,91,73,0.00,40.00,6,1,11,8.45
2013-8-4,57.0,55.7,55.0,55.0,54.3,54.0,95,93,90,0.00,40.00,1,0,3,0.00
2013-8-5,75.0,69.8,52.0,58.0,53.5,50.0,95,58,42,0.00,40.00,5,2,11,0.00
2013-8-6,81.0,69.1,56.0,64.0,57.1,52.0,95,69,40,0.00,40.00,6,2,14,0.00
2013-8-7,86.0,72.7,63.0,73.0,66.2,60.0,93,81,62,0.00,40.00,6,2,13,4.53
2013-8-8,82.0,74.1,69.0,73.0,69.9,67.0,94,86,71,0.00,40.00,6,2,13,0.00
2013-8-9,80.0,71.7,65.0,70.0,67.8,60.0,96,88,57,0.00,40.00,6,2,12,0.00
2013-10-9,69.0,60.6,52.0,43.0,41.7,40.0,68,51,35,0.00,40.00,4,2,9,0.00
2013-10-10,71.0,55.1,46.0,46.0,42.8,38.0,84,66,29,0.00,40.00,2,0,9,0.00
2013-10-11,72.0,61.0,49.0,58.0,49.4,42.0,91,68,36,0.00,40.00,6,2,14,0.00
2013-10-12,71.0,63.9,56.0,61.0,57.2,51.0,93,79,63,0.00,40.00,4,1,10,0.00
2013-10-13,71.0,62.2,59.0,61.0,52.9,-99.9,95,79,67,0.00,40.00,4,2,8,0.00
2013-10-14,71.0,61.3,55.0,56.0,50.7,46.0,88,69,47,0.00,40.00,6,2,11,0.00
2013-10-15,70.0,58.3,48.0,60.0,53.5,46.0,97,84,70,0.00,40.00,6,2,11,0.00
2013-10-16,64.0,61.3,58.0,61.0,58.5,53.0,95,90,78,0.00,40.00,9,4,15,1.10
2013-10-17,56.0,50.3,44.0,51.0,47.6,43.0,96,90,79,0.00,40.00,4,2,12,2.20
2013-10-18,62.0,49.5,43.0,46.0,42.7,39.0,94,79,42,0.00,40.00,4,2,12,0.00
2013-10-19,53.0,45.6,40.0,48.0,41.5,38.0,93,86,73,0.00,40.00,7,2,17,1.65
2013-10-20,59.0,44.0,37.0,40.0,34.1,-99.9,94,75,45,0.00,40.00,7,2,15,0.00
2013-10-21,66.0,56.1,40.0,40.0,37.4,35.0,86,51,33,0.00,40.00,9,4,16,0.00
2013-10-22,59.0,44.8,36.0,48.0,33.2,24.0,93,66,36,0.00,40.00,9,2,17,2.75
2013-10-23,43.0,38.7,36.0,38.0,36.2,30.0,95,90,60,0.00,40.00,6,2,16,2.75
2013-10-24,43.0,37.2,32.0,35.0,31.6,27.0,94,80,53,0.00,40.00,7,2,19,0.00
2013-10-25,48.0,38.6,29.0,32.0,29.6,28.0,96,72,47,0.00,40.00,7,2,12,0.00
2013-10-26,48.0,40.7,31.0,33.0,26.8,23.0,81,59,38,0.00,40.00,11,3,22,0.00
2013-10-27,55.0,41.7,31.0,35.0,29.8,-99.9,96,68,36,0.00,40.00,6,1,11,0.00
2013-10-28,60.0,43.7,31.0,36.0,30.1,-99.9,96,66,32,0.00,40.00,4,1,8,0.00
2013-11-6,48.0,48.0,48.0,38.0,38.0,38.0,67,67,67,0.00,40.00,1,1,6,0.00
2013-11-7,49.0,49.0,49.0,47.0,47.0,47.0,91,91,91,0.00,40.00,10,10,16,0.00
2013-11-9,-200.0,0.0,200.0,-99.9,-99.9,-99.9,0,0,100,0.00,40.00,4,4,12,0.00
2013-11-10,43.0,43.0,43.0,28.0,28.0,28.0,56,56,56,0.00,40.00,2,2,7,0.00
2013-11-11,30.0,30.0,30.0,27.0,27.0,27.0,88,88,88,0.00,40.00,0,0,0,0.00
2013-11-12,30.0,28.5,27.0,26.0,23.5,21.0,82,80,79,0.00,40.00,4,2,12,0.00
2013-11-13,33.0,24.3,22.0,21.0,19.5,17.0,87,81,50,0.00,40.00,4,2,9,0.00
2013-11-15,55.0,49.9,41.0,34.0,26.8,19.0,59,41,26,0.00,40.00,11,4,24,0.00
2013-11-16,58.0,49.7,42.0,49.0,41.0,-99.9,88,76,61,0.00,40.00,9,2,13,0.00
2013-11-17,60.0,57.2,54.0,58.0,52.9,40.0,94,85,57,0.00,40.00,17,9,33,5.54
2013-11-18,53.0,45.6,38.0,39.0,31.7,26.0,74,58,43,0.00,40.00,11,6,24,0.00
2013-11-19,38.0,35.9,34.0,27.0,24.2,23.0,65,62,58,0.00,40.00,9,4,18,0.00
2013-11-29,37.0,29.6,22.0,23.0,20.9,19.0,91,70,50,0.00,40.00,2,0,6,0.00
2013-11-30,42.0,31.8,24.0,27.0,20.7,-99.9,82,68,52,0.00,40.00,8,2,17,0.00
2013-12-1,41.0,36.8,32.0,29.0,27.7,26.0,77,69,58,0.00,40.00,6,2,11,0.00
2013-12-2,43.0,38.2,34.0,34.0,31.6,29.0,88,77,66,0.00,40.00,1,0,6,0.00
2013-12-3,55.0,44.2,35.0,41.0,37.4,33.0,93,78,58,0.00,40.00,7,1,12,0.00
2013-12-4,59.0,51.7,43.0,48.0,43.5,38.0,84,74,61,0.00,40.00,7,1,12,0.00
2013-12-5,61.0,52.8,35.0,58.0,48.1,33.0,95,84,69,0.00,40.00,9,4,18,7.79
2013-12-8,27.0,22.9,17.0,24.0,18.2,12.0,91,82,71,0.00,40.00,6,3,11,1.10
2013-12-9,34.0,30.6,28.0,28.0,23.3,20.0,80,74,71,0.00,40.00,6,3,15,0.00
2013-12-10,27.0,24.3,21.0,18.0,10.9,3.0,85,57,35,0.00,40.00,9,4,16,0.00
2013-12-11,32.0,23.3,17.0,21.0,14.2,11.0,80,68,50,0.00,40.00,6,3,16,0.00
2013-12-12,21.0,16.2,9.0,11.0,3.1,-4.0,86,58,34,0.00,40.00,6,2,14,0.00
2013-12-13,35.0,26.1,17.0,19.0,12.5,4.0,65,56,44,0.00,40.00,7,2,10,0.00
2013-12-14,38.0,33.1,30.0,38.0,27.1,-99.9,96,84,59,0.00,40.00,4,2,9,4.48
2013-12-16,26.0,24.2,21.0,25.0,20.1,14.0,94,84,69,0.00,40.00,3,1,7,1.10
2013-12-17,33.0,29.5,27.0,31.0,25.0,21.0,95,83,71,0.00,40.00,6,2,13,0.00
2013-12-18,28.0,26.7,26.0,18.0,17.2,17.0,67,66,64,0.00,40.00,4,2,12,0.00
2013-12-19,51.0,45.7,35.0,33.0,29.3,20.0,61,52,43,0.00,40.00,8,3,12,0.00
2013-12-20,53.0,49.7,44.0,48.0,35.3,25.0,87,59,41,0.00,40.00,9,6,18,0.55